contact:dominique.lefevre@mio.osupytheas.fr, maurice.libes@osupytheas.fr, didier.mallarino@osupytheas.fr
Project:EMSO http://www.emso-fr.org/EMSO-France
Depth: 2436.0 m
Title:EMSO Ligure Ouest : Data MII capteur CSTAR
DateTime,Latitude,Longitude,Instrument_Serial,Reference_Counts,Signal_Counts,Corrected_Signal_raw_counts,Calculated_Beam_c_inverse_meters,Internal_thermistor_counts
DateTime,Latitude,Longitude,Instrument_Serial,Reference_Counts,Signal_Counts,Corrected_Signal_raw_counts,Calculated_Beam_c_inverse_meters,Internal_thermistor_counts
2021-12-28T00:02:03,42.805,6.029,CST-1368DR,5011,6414,13682,0.529,551
2021-12-28T00:05:05,42.805,6.029,CST-1368DR,5011,6415,13683,0.529,551
2021-12-28T00:08:06,42.805,6.029,CST-1368DR,5011,6414,13682,0.529,551
2021-12-28T00:11:08,42.805,6.029,CST-1368DR,5011,6415,13683,0.529,551
2021-12-28T00:14:10,42.805,6.029,CST-1368DR,5011,6415,13683,0.529,551
2021-12-28T00:17:11,42.805,6.029,CST-1368DR,5011,6415,13683,0.529,551
2021-12-28T00:20:13,42.805,6.029,CST-1368DR,5011,6414,13682,0.529,550
2021-12-28T00:23:14,42.805,6.029,CST-1368DR,5011,6414,13680,0.529,551
2021-12-28T00:26:16,42.805,6.029,CST-1368DR,5011,6413,13679,0.530,551
2021-12-28T00:29:18,42.805,6.029,CST-1368DR,5011,6414,13680,0.529,551
2021-12-28T00:32:19,42.805,6.029,CST-1368DR,5011,6414,13680,0.529,551
2021-12-28T00:35:21,42.805,6.029,CST-1368DR,5011,6414,13682,0.529,551
2021-12-28T00:38:22,42.805,6.029,CST-1368DR,5011,6414,13682,0.529,551
2021-12-28T00:41:24,42.805,6.029,CST-1368DR,5011,6414,13682,0.529,551
2021-12-28T00:44:25,42.805,6.029,CST-1368DR,5011,6413,13678,0.530,551
2021-12-28T00:47:27,42.805,6.029,CST-1368DR,5011,6414,13682,0.529,551
2021-12-28T00:50:29,42.805,6.029,CST-1368DR,5011,6414,13682,0.529,551
2021-12-28T00:53:30,42.805,6.029,CST-1368DR,5011,6412,13678,0.530,551
2021-12-28T00:56:32,42.805,6.029,CST-1368DR,5011,6414,13680,0.529,551
2021-12-28T00:59:33,42.805,6.029,CST-1368DR,5011,6414,13682,0.529,551
2021-12-28T01:02:35,42.805,6.029,CST-1368DR,5011,6405,13661,0.535,551
2021-12-28T01:05:36,42.805,6.029,CST-1368DR,5011,6410,13673,0.531,551
2021-12-28T01:08:38,42.805,6.029,CST-1368DR,5011,6414,13680,0.529,551
2021-12-28T01:11:40,42.805,6.029,CST-1368DR,5011,6414,13681,0.529,551
2021-12-28T01:14:41,42.805,6.029,CST-1368DR,5011,6411,13675,0.531,551
2021-12-28T01:17:43,42.805,6.029,CST-1368DR,5011,6413,13679,0.530,551
2021-12-28T01:20:44,42.805,6.029,CST-1368DR,5011,6414,13680,0.529,551
2021-12-28T01:23:46,42.805,6.029,CST-1368DR,5011,6414,13680,0.529,551
2021-12-28T01:26:48,42.805,6.029,CST-1368DR,5011,6414,13681,0.529,551
2021-12-28T01:29:49,42.805,6.029,CST-1368DR,5011,6412,13678,0.530,551
2021-12-28T01:32:51,42.805,6.029,CST-1368DR,5011,6414,13680,0.529,551
2021-12-28T01:35:52,42.805,6.029,CST-1368DR,5011,6414,13681,0.529,551
2021-12-28T01:38:54,42.805,6.029,CST-1368DR,5011,6413,13679,0.530,551
2021-12-28T01:41:55,42.805,6.029,CST-1368DR,5011,6413,13679,0.530,551
2021-12-28T01:44:57,42.805,6.029,CST-1368DR,5011,6413,13680,0.529,551
2021-12-28T01:47:59,42.805,6.029,CST-1368DR,5011,6414,13680,0.529,551
2021-12-28T01:51:00,42.805,6.029,CST-1368DR,5011,6414,13680,0.529,551
2021-12-28T01:54:02,42.805,6.029,CST-1368DR,5011,6412,13678,0.530,551
2021-12-28T01:57:03,42.805,6.029,CST-1368DR,5011,6414,13680,0.529,551
2021-12-28T02:00:05,42.805,6.029,CST-1368DR,5011,6413,13679,0.530,551
2021-12-28T02:03:07,42.805,6.029,CST-1368DR,5010,6413,13682,0.529,551
2021-12-28T02:06:08,42.805,6.029,CST-1368DR,5011,6413,13679,0.530,551
2021-12-28T02:09:10,42.805,6.029,CST-1368DR,5011,6412,13676,0.531,551
2021-12-28T02:12:11,42.805,6.029,CST-1368DR,5011,6414,13680,0.529,551
2021-12-28T02:15:13,42.805,6.029,CST-1368DR,5011,6413,13680,0.529,551
2021-12-28T02:18:14,42.805,6.029,CST-1368DR,5011,6413,13680,0.529,551
2021-12-28T02:21:16,42.805,6.029,CST-1368DR,5011,6413,13678,0.530,551
2021-12-28T02:24:18,42.805,6.029,CST-1368DR,5011,6413,13679,0.530,551
2021-12-28T02:27:19,42.805,6.029,CST-1368DR,5011,6413,13679,0.530,551
2021-12-28T02:30:21,42.805,6.029,CST-1368DR,5010,6412,13680,0.529,551
2021-12-28T02:33:22,42.805,6.029,CST-1368DR,5010,6413,13681,0.529,551
2021-12-28T02:36:24,42.805,6.029,CST-1368DR,5010,6411,13678,0.530,551
2021-12-28T02:39:25,42.805,6.029,CST-1368DR,5010,6412,13680,0.529,551
2021-12-28T02:42:27,42.805,6.029,CST-1368DR,5011,6412,13676,0.531,551
2021-12-28T02:45:29,42.805,6.029,CST-1368DR,5011,6412,13676,0.531,551
2021-12-28T02:48:30,42.805,6.029,CST-1368DR,5010,6412,13680,0.529,551
2021-12-28T02:51:32,42.805,6.029,CST-1368DR,5010,6413,13682,0.529,551
2021-12-28T02:54:33,42.805,6.029,CST-1368DR,5010,6412,13679,0.530,551
2021-12-28T02:57:35,42.805,6.029,CST-1368DR,5010,6412,13680,0.529,551
2021-12-28T03:00:37,42.805,6.029,CST-1368DR,5010,6413,13682,0.529,551
2021-12-28T03:03:38,42.805,6.029,CST-1368DR,5010,6413,13683,0.529,551
2021-12-28T03:06:40,42.805,6.029,CST-1368DR,5010,6413,13681,0.529,551
2021-12-28T03:09:41,42.805,6.029,CST-1368DR,5011,6413,13679,0.530,551
2021-12-28T03:12:43,42.805,6.029,CST-1368DR,5011,6413,13678,0.530,551
2021-12-28T03:15:44,42.805,6.029,CST-1368DR,5010,6413,13681,0.529,551
2021-12-28T03:18:46,42.805,6.029,CST-1368DR,5011,6414,13680,0.529,551
2021-12-28T03:21:48,42.805,6.029,CST-1368DR,5011,6413,13679,0.530,551
2021-12-28T03:24:49,42.805,6.029,CST-1368DR,5011,6412,13676,0.531,551
2021-12-28T03:27:51,42.805,6.029,CST-1368DR,5011,6413,13679,0.530,551
2021-12-28T03:30:52,42.805,6.029,CST-1368DR,5011,6413,13679,0.530,551
2021-12-28T03:33:54,42.805,6.029,CST-1368DR,5010,6413,13681,0.529,551
2021-12-28T03:36:56,42.805,6.029,CST-1368DR,5010,6412,13680,0.529,551
2021-12-28T03:39:57,42.805,6.029,CST-1368DR,5010,6412,13680,0.529,551
2021-12-28T03:42:59,42.805,6.029,CST-1368DR,5010,6413,13681,0.529,551
2021-12-28T03:46:00,42.805,6.029,CST-1368DR,5010,6408,13671,0.532,551
2021-12-28T03:49:02,42.805,6.029,CST-1368DR,5010,6412,13680,0.529,551
2021-12-28T03:52:03,42.805,6.029,CST-1368DR,5010,6413,13681,0.529,551
2021-12-28T03:55:05,42.805,6.029,CST-1368DR,5010,6411,13678,0.530,551
2021-12-28T03:58:07,42.805,6.029,CST-1368DR,5010,6411,13678,0.530,551
2021-12-28T04:01:08,42.805,6.029,CST-1368DR,5010,6413,13681,0.529,551
2021-12-28T04:04:10,42.805,6.029,CST-1368DR,5010,6412,13680,0.529,551
2021-12-28T04:07:11,42.805,6.029,CST-1368DR,5010,6412,13680,0.529,551
2021-12-28T04:10:13,42.805,6.029,CST-1368DR,5010,6412,13680,0.529,551
2021-12-28T04:13:14,42.805,6.029,CST-1368DR,5010,6412,13679,0.530,551
2021-12-28T04:16:16,42.805,6.029,CST-1368DR,5010,6412,13679,0.530,550
2021-12-28T04:19:18,42.805,6.029,CST-1368DR,5010,6413,13681,0.529,551
2021-12-28T04:22:19,42.805,6.029,CST-1368DR,5010,6413,13681,0.529,551
2021-12-28T04:25:21,42.805,6.029,CST-1368DR,5010,6410,13676,0.531,551
2021-12-28T04:28:22,42.805,6.029,CST-1368DR,5010,6411,13678,0.530,550
2021-12-28T04:31:24,42.805,6.029,CST-1368DR,5010,6411,13678,0.530,551
2021-12-28T04:34:26,42.805,6.029,CST-1368DR,5010,6413,13681,0.529,551
2021-12-28T04:37:27,42.805,6.029,CST-1368DR,5010,6412,13680,0.529,551
2021-12-28T04:40:29,42.805,6.029,CST-1368DR,5010,6412,13680,0.529,551
2021-12-28T04:43:30,42.805,6.029,CST-1368DR,5010,6413,13681,0.529,551
2021-12-28T04:46:32,42.805,6.029,CST-1368DR,5010,6413,13681,0.529,551
2021-12-28T04:49:33,42.805,6.029,CST-1368DR,5010,6412,13680,0.529,551
2021-12-28T04:52:35,42.805,6.029,CST-1368DR,5010,6412,13680,0.529,551
2021-12-28T04:55:37,42.805,6.029,CST-1368DR,5010,6413,13681,0.529,551
2021-12-28T04:58:38,42.805,6.029,CST-1368DR,5010,6412,13679,0.530,551
2021-12-28T05:01:40,42.805,6.029,CST-1368DR,5010,6412,13680,0.529,551
2021-12-28T05:04:41,42.805,6.029,CST-1368DR,5010,6412,13680,0.529,551
2021-12-28T05:07:43,42.805,6.029,CST-1368DR,5010,6411,13678,0.530,551
2021-12-28T05:10:44,42.805,6.029,CST-1368DR,5010,6411,13677,0.530,551
2021-12-28T05:13:46,42.805,6.029,CST-1368DR,5010,6411,13678,0.530,551
2021-12-28T05:16:48,42.805,6.029,CST-1368DR,5010,6412,13680,0.529,551
2021-12-28T05:19:49,42.805,6.029,CST-1368DR,5010,6411,13678,0.530,551
2021-12-28T05:22:51,42.805,6.029,CST-1368DR,5010,6411,13678,0.530,551
2021-12-28T05:25:52,42.805,6.029,CST-1368DR,5010,6412,13680,0.529,551
2021-12-28T05:28:54,42.805,6.029,CST-1368DR,5010,6413,13682,0.529,551
2021-12-28T05:31:56,42.805,6.029,CST-1368DR,5010,6411,13678,0.530,551
2021-12-28T05:34:57,42.805,6.029,CST-1368DR,5010,6412,13680,0.529,551
2021-12-28T05:37:59,42.805,6.029,CST-1368DR,5010,6412,13679,0.530,551
2021-12-28T05:41:00,42.805,6.029,CST-1368DR,5010,6412,13680,0.529,551
2021-12-28T05:44:02,42.805,6.029,CST-1368DR,5010,6411,13678,0.530,551
2021-12-28T05:47:03,42.805,6.029,CST-1368DR,5010,6411,13678,0.530,551
2021-12-28T05:50:05,42.805,6.029,CST-1368DR,5010,6412,13679,0.530,551
2021-12-28T05:53:07,42.805,6.029,CST-1368DR,5010,6411,13677,0.530,551
2021-12-28T05:56:08,42.805,6.029,CST-1368DR,5010,6411,13678,0.530,550
2021-12-28T05:59:10,42.805,6.029,CST-1368DR,5010,6410,13675,0.531,551
2021-12-28T06:02:11,42.805,6.029,CST-1368DR,5010,6411,13678,0.530,551
2021-12-28T06:05:13,42.805,6.029,CST-1368DR,5010,6412,13680,0.529,551
2021-12-28T06:08:15,42.805,6.029,CST-1368DR,5010,6410,13675,0.531,551
2021-12-28T06:11:16,42.805,6.029,CST-1368DR,5010,6412,13679,0.530,550
2021-12-28T06:14:18,42.805,6.029,CST-1368DR,5010,6410,13676,0.531,551
2021-12-28T06:17:19,42.805,6.029,CST-1368DR,5010,6410,13676,0.531,551
2021-12-28T06:20:21,42.805,6.029,CST-1368DR,5010,6409,13673,0.531,551
2021-12-28T06:23:22,42.805,6.029,CST-1368DR,5010,6410,13676,0.531,551
2021-12-28T06:26:24,42.805,6.029,CST-1368DR,5010,6410,13676,0.531,551
2021-12-28T06:29:26,42.805,6.029,CST-1368DR,5010,6411,13677,0.530,551
2021-12-28T06:32:27,42.805,6.029,CST-1368DR,5010,6411,13678,0.530,551
2021-12-28T06:35:29,42.805,6.029,CST-1368DR,5010,6411,13677,0.530,550
2021-12-28T06:38:30,42.805,6.029,CST-1368DR,5010,6411,13677,0.530,551
2021-12-28T06:41:32,42.805,6.029,CST-1368DR,5010,6410,13676,0.531,551
2021-12-28T06:44:33,42.805,6.029,CST-1368DR,5010,6411,13677,0.530,551
2021-12-28T06:47:35,42.805,6.029,CST-1368DR,5010,6412,13680,0.529,551
2021-12-28T06:50:37,42.805,6.029,CST-1368DR,5010,6410,13676,0.531,551
2021-12-28T06:53:38,42.805,6.029,CST-1368DR,5010,6408,13672,0.532,551
2021-12-28T06:56:40,42.805,6.029,CST-1368DR,5010,6411,13678,0.530,551
2021-12-28T06:59:41,42.805,6.029,CST-1368DR,5010,6411,13677,0.530,551
2021-12-28T07:02:43,42.805,6.029,CST-1368DR,5010,6412,13679,0.530,551
2021-12-28T07:05:45,42.805,6.029,CST-1368DR,5010,6411,13678,0.530,551
2021-12-28T07:08:46,42.805,6.029,CST-1368DR,5010,6411,13677,0.530,551
2021-12-28T07:11:48,42.805,6.029,CST-1368DR,5010,6403,13661,0.535,551
2021-12-28T07:14:49,42.805,6.029,CST-1368DR,5010,6411,13678,0.530,551
2021-12-28T07:17:51,42.805,6.029,CST-1368DR,5010,6411,13677,0.530,551
2021-12-28T07:20:52,42.805,6.029,CST-1368DR,5010,6412,13679,0.530,551
2021-12-28T07:23:54,42.805,6.029,CST-1368DR,5010,6412,13679,0.530,551
2021-12-28T07:26:56,42.805,6.029,CST-1368DR,5010,6410,13675,0.531,551
2021-12-28T07:29:57,42.805,6.029,CST-1368DR,5010,6411,13677,0.530,551
2021-12-28T07:32:59,42.805,6.029,CST-1368DR,5010,6411,13677,0.530,551
2021-12-28T07:36:00,42.805,6.029,CST-1368DR,5010,6412,13679,0.530,551
2021-12-28T07:39:02,42.805,6.029,CST-1368DR,5010,6410,13675,0.531,551
2021-12-28T07:42:04,42.805,6.029,CST-1368DR,5010,6409,13673,0.531,551
2021-12-28T07:45:05,42.805,6.029,CST-1368DR,5010,6407,13669,0.533,551
2021-12-28T07:48:07,42.805,6.029,CST-1368DR,5010,6410,13676,0.531,551
2021-12-28T07:51:08,42.805,6.029,CST-1368DR,5010,6410,13675,0.531,550
2021-12-28T07:54:10,42.805,6.029,CST-1368DR,5010,6405,13665,0.534,551
2021-12-28T07:57:11,42.805,6.029,CST-1368DR,5010,6410,13676,0.531,551
2021-12-28T08:00:13,42.805,6.029,CST-1368DR,5010,6411,13677,0.530,551
2021-12-28T08:03:15,42.805,6.029,CST-1368DR,5010,6410,13676,0.531,551
2021-12-28T08:06:16,42.805,6.029,CST-1368DR,5010,6411,13678,0.530,551
2021-12-28T08:09:18,42.805,6.029,CST-1368DR,5010,6410,13676,0.531,551
2021-12-28T08:12:19,42.805,6.029,CST-1368DR,5010,6411,13677,0.530,551
2021-12-28T08:15:21,42.805,6.029,CST-1368DR,5010,6411,13678,0.530,551
2021-12-28T08:18:22,42.805,6.029,CST-1368DR,5010,6410,13675,0.531,551
2021-12-28T08:21:24,42.805,6.029,CST-1368DR,5010,6410,13676,0.531,551
2021-12-28T08:24:26,42.805,6.029,CST-1368DR,5010,6410,13676,0.531,551
2021-12-28T08:27:27,42.805,6.029,CST-1368DR,5010,6411,13677,0.530,551
2021-12-28T08:30:29,42.805,6.029,CST-1368DR,5010,6411,13677,0.530,551
2021-12-28T08:33:30,42.805,6.029,CST-1368DR,5010,6407,13670,0.532,551
2021-12-28T08:36:32,42.805,6.029,CST-1368DR,5010,6411,13677,0.530,551
2021-12-28T08:39:34,42.805,6.029,CST-1368DR,5010,6411,13677,0.530,551
2021-12-28T08:42:35,42.805,6.029,CST-1368DR,5010,6411,13677,0.530,551
2021-12-28T08:45:37,42.805,6.029,CST-1368DR,5010,6408,13670,0.532,551
2021-12-28T08:48:38,42.805,6.029,CST-1368DR,5010,6410,13676,0.531,551
2021-12-28T08:51:40,42.805,6.029,CST-1368DR,5010,6407,13668,0.533,551
2021-12-28T08:54:41,42.805,6.029,CST-1368DR,5010,6410,13676,0.531,551
2021-12-28T08:57:43,42.805,6.029,CST-1368DR,5010,6410,13675,0.531,551
2021-12-28T09:00:45,42.805,6.029,CST-1368DR,5010,6410,13676,0.531,551
2021-12-28T09:03:46,42.805,6.029,CST-1368DR,5010,6409,13673,0.531,551
2021-12-28T09:06:48,42.805,6.029,CST-1368DR,5010,6408,13671,0.532,551
2021-12-28T09:09:49,42.805,6.029,CST-1368DR,5010,6409,13674,0.531,551
2021-12-28T09:12:51,42.805,6.029,CST-1368DR,5010,6410,13676,0.531,551
2021-12-28T09:15:53,42.805,6.029,CST-1368DR,5010,6409,13673,0.531,551
2021-12-28T09:18:54,42.805,6.029,CST-1368DR,5010,6411,13678,0.530,551
2021-12-28T09:21:56,42.805,6.029,CST-1368DR,5010,6412,13679,0.530,551
2021-12-28T09:24:57,42.805,6.029,CST-1368DR,5010,6411,13678,0.530,551
2021-12-28T09:27:59,42.805,6.029,CST-1368DR,5010,6411,13677,0.530,551
2021-12-28T09:31:00,42.805,6.029,CST-1368DR,5010,6411,13678,0.530,551
2021-12-28T09:34:02,42.805,6.029,CST-1368DR,5010,6412,13679,0.530,551
2021-12-28T09:37:04,42.805,6.029,CST-1368DR,5010,6410,13675,0.531,551
2021-12-28T09:40:05,42.805,6.029,CST-1368DR,5010,6411,13677,0.530,551
2021-12-28T09:43:07,42.805,6.029,CST-1368DR,5010,6411,13677,0.530,551
2021-12-28T09:46:08,42.805,6.029,CST-1368DR,5010,6410,13676,0.531,551
2021-12-28T09:49:10,42.805,6.029,CST-1368DR,5010,6410,13676,0.531,551
2021-12-28T09:52:12,42.805,6.029,CST-1368DR,5010,6410,13676,0.531,551
2021-12-28T09:55:13,42.805,6.029,CST-1368DR,5010,6409,13673,0.531,551
2021-12-28T09:58:15,42.805,6.029,CST-1368DR,5010,6410,13675,0.531,551
2021-12-28T10:01:16,42.805,6.029,CST-1368DR,5010,6410,13676,0.531,551
2021-12-28T10:04:18,42.805,6.029,CST-1368DR,5010,6409,13673,0.531,551
2021-12-28T10:07:19,42.805,6.029,CST-1368DR,5010,6410,13676,0.531,551
2021-12-28T10:10:21,42.805,6.029,CST-1368DR,5010,6410,13676,0.531,551
2021-12-28T10:13:23,42.805,6.029,CST-1368DR,5010,6411,13677,0.530,551
2021-12-28T10:16:24,42.805,6.029,CST-1368DR,5010,6411,13677,0.530,551
2021-12-28T10:19:26,42.805,6.029,CST-1368DR,5010,6410,13676,0.531,551
2021-12-28T10:22:27,42.805,6.029,CST-1368DR,5010,6411,13677,0.530,551
2021-12-28T10:25:29,42.805,6.029,CST-1368DR,5010,6411,13677,0.530,551
2021-12-28T10:28:30,42.805,6.029,CST-1368DR,5010,6410,13676,0.531,551
2021-12-28T10:31:32,42.805,6.029,CST-1368DR,5010,6407,13670,0.532,551
2021-12-28T10:34:34,42.805,6.029,CST-1368DR,5010,6408,13671,0.532,551
2021-12-28T10:37:35,42.805,6.029,CST-1368DR,5010,6410,13676,0.531,551
2021-12-28T10:40:37,42.805,6.029,CST-1368DR,5010,6410,13676,0.531,551
2021-12-28T10:43:38,42.805,6.029,CST-1368DR,5010,6410,13676,0.531,551
2021-12-28T10:46:40,42.805,6.029,CST-1368DR,5010,6410,13676,0.531,551
2021-12-28T10:49:42,42.805,6.029,CST-1368DR,5010,6409,13674,0.531,551
2021-12-28T10:52:43,42.805,6.029,CST-1368DR,5010,6409,13673,0.531,551
2021-12-28T10:55:45,42.805,6.029,CST-1368DR,5010,6406,13668,0.533,551
2021-12-28T10:58:46,42.805,6.029,CST-1368DR,5010,6409,13673,0.531,551
2021-12-28T11:01:48,42.805,6.029,CST-1368DR,5010,6407,13670,0.532,551
2021-12-28T11:04:49,42.805,6.029,CST-1368DR,5010,6409,13674,0.531,551
2021-12-28T11:07:51,42.805,6.029,CST-1368DR,5010,6410,13676,0.531,551
2021-12-28T11:10:53,42.805,6.029,CST-1368DR,5010,6410,13676,0.531,551
2021-12-28T11:13:54,42.805,6.029,CST-1368DR,5010,6410,13676,0.531,551
2021-12-28T11:16:56,42.805,6.029,CST-1368DR,5010,6411,13677,0.530,551
2021-12-28T11:19:57,42.805,6.029,CST-1368DR,5010,6410,13676,0.531,551
2021-12-28T11:22:59,42.805,6.029,CST-1368DR,5010,6410,13675,0.531,551
2021-12-28T11:26:01,42.805,6.029,CST-1368DR,5010,6410,13676,0.531,551
2021-12-28T11:29:02,42.805,6.029,CST-1368DR,5010,6410,13675,0.531,551
2021-12-28T11:32:04,42.805,6.029,CST-1368DR,5010,6408,13671,0.532,551
2021-12-28T11:35:05,42.805,6.029,CST-1368DR,5010,6410,13676,0.531,551
2021-12-28T11:38:07,42.805,6.029,CST-1368DR,5010,6410,13676,0.531,551
2021-12-28T11:41:08,42.805,6.029,CST-1368DR,5010,6409,13674,0.531,551
2021-12-28T11:44:10,42.805,6.029,CST-1368DR,5010,6410,13675,0.531,551
2021-12-28T11:47:12,42.805,6.029,CST-1368DR,5010,6409,13673,0.531,551
2021-12-28T11:50:13,42.805,6.029,CST-1368DR,5010,6410,13676,0.531,551
2021-12-28T11:53:15,42.805,6.029,CST-1368DR,5010,6410,13675,0.531,551
2021-12-28T11:56:16,42.805,6.029,CST-1368DR,5010,6410,13675,0.531,551
2021-12-28T11:59:18,42.805,6.029,CST-1368DR,5010,6408,13671,0.532,551
2021-12-28T12:02:20,42.805,6.029,CST-1368DR,5010,6409,13673,0.531,551
2021-12-28T12:05:21,42.805,6.029,CST-1368DR,5010,6410,13675,0.531,551
2021-12-28T12:08:23,42.805,6.029,CST-1368DR,5010,6410,13675,0.531,551
2021-12-28T12:11:24,42.805,6.029,CST-1368DR,5010,6410,13675,0.531,551
2021-12-28T12:14:26,42.805,6.029,CST-1368DR,5010,6409,13674,0.531,551
2021-12-28T12:17:27,42.805,6.029,CST-1368DR,5010,6410,13675,0.531,551
2021-12-28T12:20:29,42.805,6.029,CST-1368DR,5010,6411,13677,0.530,551
2021-12-28T12:23:31,42.805,6.029,CST-1368DR,5010,6411,13677,0.530,551
2021-12-28T12:26:32,42.805,6.029,CST-1368DR,5010,6409,13674,0.531,551
2021-12-28T12:29:34,42.805,6.029,CST-1368DR,5010,6410,13676,0.531,551
2021-12-28T12:32:35,42.805,6.029,CST-1368DR,5010,6410,13676,0.531,551
2021-12-28T12:35:37,42.805,6.029,CST-1368DR,5010,6408,13671,0.532,551
2021-12-28T12:38:38,42.805,6.029,CST-1368DR,5010,6410,13676,0.531,551
2021-12-28T12:41:40,42.805,6.029,CST-1368DR,5010,6411,13677,0.530,551
2021-12-28T12:44:42,42.805,6.029,CST-1368DR,5010,6409,13674,0.531,551
2021-12-28T12:47:43,42.805,6.029,CST-1368DR,5010,6410,13676,0.531,551
2021-12-28T12:50:45,42.805,6.029,CST-1368DR,5010,6410,13676,0.531,551
2021-12-28T12:53:46,42.805,6.029,CST-1368DR,5010,6411,13677,0.530,551
2021-12-28T12:56:48,42.805,6.029,CST-1368DR,5010,6410,13676,0.531,551
2021-12-28T12:59:50,42.805,6.029,CST-1368DR,5010,6411,13677,0.530,551
2021-12-28T13:02:51,42.805,6.029,CST-1368DR,5010,6411,13677,0.530,551
2021-12-28T13:05:53,42.805,6.029,CST-1368DR,5010,6410,13675,0.531,551
2021-12-28T13:08:54,42.805,6.029,CST-1368DR,5010,6411,13677,0.530,551
2021-12-28T13:11:56,42.805,6.029,CST-1368DR,5010,6411,13677,0.530,551
2021-12-28T13:14:57,42.805,6.029,CST-1368DR,5010,6411,13677,0.530,551
2021-12-28T13:17:59,42.805,6.029,CST-1368DR,5010,6410,13676,0.531,551
2021-12-28T13:21:01,42.805,6.029,CST-1368DR,5010,6410,13675,0.531,551
2021-12-28T13:24:02,42.805,6.029,CST-1368DR,5010,6410,13676,0.531,551
2021-12-28T13:27:04,42.805,6.029,CST-1368DR,5010,6409,13674,0.531,551
2021-12-28T13:30:05,42.805,6.029,CST-1368DR,5010,6411,13677,0.530,551
2021-12-28T13:33:07,42.805,6.029,CST-1368DR,5010,6410,13676,0.531,551
2021-12-28T13:36:09,42.805,6.029,CST-1368DR,5010,6410,13675,0.531,551
2021-12-28T13:39:10,42.805,6.029,CST-1368DR,5010,6411,13677,0.530,551
2021-12-28T13:42:12,42.805,6.029,CST-1368DR,5010,6408,13672,0.532,551
2021-12-28T13:45:13,42.805,6.029,CST-1368DR,5010,6410,13676,0.531,551
2021-12-28T13:48:15,42.805,6.029,CST-1368DR,5010,6410,13676,0.531,551
2021-12-28T13:51:16,42.805,6.029,CST-1368DR,5010,6411,13677,0.530,551
2021-12-28T13:54:18,42.805,6.029,CST-1368DR,5010,6410,13676,0.531,551
2021-12-28T13:57:20,42.805,6.029,CST-1368DR,5010,6410,13675,0.531,551
2021-12-28T14:00:21,42.805,6.029,CST-1368DR,5010,6410,13676,0.531,551
2021-12-28T14:03:23,42.805,6.029,CST-1368DR,5010,6411,13677,0.530,551
2021-12-28T14:06:24,42.805,6.029,CST-1368DR,5010,6410,13675,0.531,551
2021-12-28T14:09:26,42.805,6.029,CST-1368DR,5010,6410,13676,0.531,551
2021-12-28T14:12:27,42.805,6.029,CST-1368DR,5010,6410,13675,0.531,551
2021-12-28T14:15:29,42.805,6.029,CST-1368DR,5010,6410,13676,0.531,551
2021-12-28T14:18:31,42.805,6.029,CST-1368DR,5010,6408,13671,0.532,551
2021-12-28T14:21:32,42.805,6.029,CST-1368DR,5010,6409,13674,0.531,551
2021-12-28T14:24:34,42.805,6.029,CST-1368DR,5010,6407,13669,0.533,551
2021-12-28T14:27:35,42.805,6.029,CST-1368DR,5010,6409,13674,0.531,551
2021-12-28T14:30:37,42.805,6.029,CST-1368DR,5010,6409,13674,0.531,551
2021-12-28T14:33:39,42.805,6.029,CST-1368DR,5010,6409,13673,0.531,551
2021-12-28T14:36:40,42.805,6.029,CST-1368DR,5010,6409,13673,0.531,551
2021-12-28T14:39:42,42.805,6.029,CST-1368DR,5010,6409,13673,0.531,551
2021-12-28T14:42:43,42.805,6.029,CST-1368DR,5010,6409,13673,0.531,551
2021-12-28T14:45:45,42.805,6.029,CST-1368DR,5010,6409,13673,0.531,551
2021-12-28T14:48:46,42.805,6.029,CST-1368DR,5010,6409,13674,0.531,551
2021-12-28T14:51:48,42.805,6.029,CST-1368DR,5010,6410,13675,0.531,551
2021-12-28T14:54:50,42.805,6.029,CST-1368DR,5010,6409,13674,0.531,551
2021-12-28T14:57:51,42.805,6.029,CST-1368DR,5010,6410,13676,0.531,551
2021-12-28T15:00:53,42.805,6.029,CST-1368DR,5010,6410,13675,0.531,551
2021-12-28T15:03:54,42.805,6.029,CST-1368DR,5010,6409,13673,0.531,551
2021-12-28T15:06:56,42.805,6.029,CST-1368DR,5010,6410,13675,0.531,551
2021-12-28T15:09:57,42.805,6.029,CST-1368DR,5010,6409,13673,0.531,551
2021-12-28T15:12:59,42.805,6.029,CST-1368DR,5010,6410,13675,0.531,551
2021-12-28T15:16:01,42.805,6.029,CST-1368DR,5010,6409,13673,0.531,551
2021-12-28T15:19:02,42.805,6.029,CST-1368DR,5010,6410,13675,0.531,551
2021-12-28T15:22:04,42.805,6.029,CST-1368DR,5010,6409,13674,0.531,551
2021-12-28T15:25:05,42.805,6.029,CST-1368DR,5010,6410,13675,0.531,551
2021-12-28T15:28:07,42.805,6.029,CST-1368DR,5010,6409,13673,0.531,550
2021-12-28T15:31:09,42.805,6.029,CST-1368DR,5010,6409,13674,0.531,551
2021-12-28T15:34:10,42.805,6.029,CST-1368DR,5010,6410,13676,0.531,551
2021-12-28T15:37:12,42.805,6.029,CST-1368DR,5010,6410,13676,0.531,551
2021-12-28T15:40:13,42.805,6.029,CST-1368DR,5010,6409,13673,0.531,551
2021-12-28T15:43:15,42.805,6.029,CST-1368DR,5010,6409,13673,0.531,551
2021-12-28T15:46:16,42.805,6.029,CST-1368DR,5010,6410,13675,0.531,551
2021-12-28T15:49:18,42.805,6.029,CST-1368DR,5010,6409,13674,0.531,551
2021-12-28T15:52:20,42.805,6.029,CST-1368DR,5010,6410,13675,0.531,551
2021-12-28T15:55:21,42.805,6.029,CST-1368DR,5010,6408,13670,0.532,551
2021-12-28T15:58:23,42.805,6.029,CST-1368DR,5010,6408,13672,0.532,551
2021-12-28T16:01:24,42.805,6.029,CST-1368DR,5010,6409,13674,0.531,551
2021-12-28T16:04:26,42.805,6.029,CST-1368DR,5010,6410,13675,0.531,551
2021-12-28T16:07:28,42.805,6.029,CST-1368DR,5009,6406,13669,0.533,551
2021-12-28T16:10:29,42.805,6.029,CST-1368DR,5010,6409,13673,0.531,551
2021-12-28T16:13:31,42.805,6.029,CST-1368DR,5010,6409,13674,0.531,551
2021-12-28T16:16:32,42.805,6.029,CST-1368DR,5010,6409,13673,0.531,551
2021-12-28T16:19:34,42.805,6.029,CST-1368DR,5010,6409,13673,0.531,551
2021-12-28T16:22:35,42.805,6.029,CST-1368DR,5009,6409,13677,0.530,551
2021-12-28T16:25:37,42.805,6.029,CST-1368DR,5010,6409,13673,0.531,551
2021-12-28T16:28:39,42.805,6.029,CST-1368DR,5009,6409,13676,0.531,551
2021-12-28T16:31:40,42.805,6.029,CST-1368DR,5010,6407,13669,0.533,551
2021-12-28T16:34:42,42.805,6.029,CST-1368DR,5009,6409,13677,0.530,551
2021-12-28T16:37:43,42.805,6.029,CST-1368DR,5009,6409,13677,0.530,551
2021-12-28T16:40:45,42.805,6.029,CST-1368DR,5009,6409,13676,0.531,551
2021-12-28T16:43:47,42.805,6.029,CST-1368DR,5009,6408,13674,0.531,551
2021-12-28T16:46:48,42.805,6.029,CST-1368DR,5009,6406,13669,0.533,551
2021-12-28T16:49:50,42.805,6.029,CST-1368DR,5009,6409,13677,0.530,551
2021-12-28T16:52:51,42.805,6.029,CST-1368DR,5009,6407,13672,0.532,551